Zurück zum Katalog

STARLINK-5161

AktivKommunikationVLEO
NORAD 54163·PAYLOAD·🇺🇸 United States

Gestartet Oct 28, 2022 von Vandenberg Space Force Base

Loading…

Nächste Überflüge (nächste 24 Stunden)

TLE

AktuellSource: CelesTrak SupGP

Epoche: Sep 15, 2026, 02:25 UTC

1 54163C 22141G   26258.10118056 -.00029303  00000+0 -86601-3 0  2584
2 54163  53.1584 218.9561 0001336  86.9267 330.8107 15.34395533    14

Verfolge STARLINK-5161 in Echtzeit mit AllMySat

Download on the App Store